Flag for Germany Weather past 2 weeks in Meissen, Saxony, Germany

Now
43 °F

Rain. Partly sunny.


Feels Like: 37 °F
Forecast: 46 / 53 °F
Wind: 9 mph from West

Location: Dresden-Klotzsche

Current Time: Oct 22, 2014 at 11:50:21 AM

Latest Report: Oct 22, 2014 at 11:20 AM


Visibility: 3 mi

Pressure: 29.71 "Hg

Humidity: 93%

Dew point: 41 °F

Location of MeissenLocation

Historic Weather in Meissen — Graph

°F

Meissen temperature yesterday

Maximum temperature yesterday: 59 °F (at 12:20 PM)
Minimum temperature yesterday: 50 °F (at 11:50 PM)
Average temperature yesterday: 55 °F

Past Weeks' High & Low Weather Summary

 TemperatureHumidityPressure
High70 °F (Oct 19, 2:50 PM)100% (Oct 10, 8:20 AM)30.24 "Hg (Oct 10, 8:20 AM)
Low41 °F (Oct 22, 10:50 AM)55% (Oct 21, 1:50 PM)29.47 "Hg (Oct 21, 10:20 PM)
Average58 °F84%29.88 "Hg
* Reported Oct 7 10:20 AM — Oct 22 10:50 AM, Meissen, Weather by CustomWeather, © 2014

Note: Actual official high and low records may vary slightly from our data, if they occured in-between our weather recording intervals... More about our weather records

Advertising

Meissen weather history for previous 24 hours

 ConditionsComfort  
Time TempWeatherWind HumidityBarometerVisibility
10:50 AM
Oct 22
41 °FRain. Partly sunny.12 mph100%29.71 "Hg3 mi
10:20 AM43 °FRain. Partly sunny.13 mph93%29.71 "Hg3 mi
9:50 AM43 °FRain. Partly sunny.12 mph93%29.71 "Hg3 mi
9:20 AM43 °FLight rain. Partly sunny.15 mph87%29.68 "HgN/A
8:50 AM45 °FPartly sunny.13 mph87%29.68 "HgN/A
8:20 AM45 °FPassing clouds.12 mph87%29.68 "HgN/A
7:50 AM45 °FLight rain. Passing clouds.12 mph87%29.65 "HgN/A
7:20 AM45 °FLight rain. Mostly cloudy.12 mph87%29.65 "HgN/A
6:50 AM46 °FLight rain. Mostly cloudy.15 mph82%29.65 "HgN/A
6:20 AM46 °FPassing clouds.13 mph82%29.65 "HgN/A
5:50 AM46 °FPassing clouds.16 mph82%29.65 "HgN/A
5:20 AM46 °FPassing clouds.14 mph82%29.62 "HgN/A
4:50 AM46 °FPassing clouds.13 mph82%29.65 "HgN/A
4:20 AM46 °FPartly cloudy.15 mph87%29.65 "HgN/A
3:50 AM46 °FPartly cloudy.15 mph87%29.65 "HgN/A
3:20 AM46 °FLight rain. Overcast.15 mph93%29.65 "HgN/A
2:50 AM46 °FRain. Partly cloudy.14 mph93%29.62 "HgN/A
2:20 AM46 °FRain. Overcast.16 mph93%29.62 "HgN/A
1:50 AM48 °FLight rain. Mostly cloudy.15 mph94%29.59 "HgN/A
1:20 AM48 °FRain. Mostly cloudy.12 mph94%29.56 "HgN/A
12:50 AM48 °FLight rain. Mostly cloudy.7 mph94%29.56 "HgN/A
12:20 AM50 °FLight rain. Partly cloudy.9 mph88%29.53 "HgN/A
11:50 PM
Oct 21
50 °FLight rain. Overcast.15 mph94%29.53 "HgN/A
11:20 PM52 °FLight rain. Mostly cloudy.9 mph94%29.47 "HgN/A
10:50 PM55 °FLight rain. Passing clouds.7 mph77%29.47 "HgN/A
10:20 PM55 °FPassing clouds.6 mph77%29.47 "HgN/A
9:50 PM55 °FPartly cloudy.6 mph72%29.50 "HgN/A
9:20 PM55 °FPassing clouds.8 mph72%29.50 "HgN/A
8:50 PM55 °FPassing clouds.8 mph72%29.53 "HgN/A
8:20 PM55 °FPassing clouds.8 mph72%29.53 "HgN/A
7:50 PM55 °FPartly cloudy.10 mph72%29.56 "HgN/A
7:20 PM55 °FPartly cloudy.10 mph72%29.56 "HgN/A
6:50 PM55 °FPartly sunny.8 mph72%29.59 "HgN/A
6:20 PM55 °FLight rain. Sunny.7 mph72%29.59 "HgN/A
5:50 PM55 °FSunny.6 mph77%29.62 "Hg10 mi
5:20 PM55 °FLight rain. Partly sunny.7 mph72%29.62 "HgN/A
4:50 PM57 °FLight rain. Broken clouds.8 mph63%29.65 "HgN/A
4:20 PM57 °FSunny.8 mph63%29.65 "Hg10 mi
3:50 PM57 °FPartly sunny.8 mph59%29.68 "HgN/A
3:20 PM57 °FPartly sunny.13 mph55%29.68 "HgN/A
2:50 PM59 °FPartly sunny.10 mph55%29.71 "HgN/A
2:20 PM59 °FPartly sunny.12 mph55%29.71 "HgN/A
1:50 PM59 °FPartly sunny.14 mph55%29.74 "HgN/A
1:20 PM59 °FScattered clouds.12 mph63%29.74 "HgN/A
12:50 PM59 °FScattered clouds.13 mph68%29.77 "HgN/A
12:20 PM59 °FPassing clouds.12 mph68%29.80 "HgN/A
11:50 AM57 °FScattered clouds.9 mph72%29.80 "HgN/A
11:20 AM57 °FPartly sunny.10 mph72%29.80 "HgN/A
Weather by CustomWeather, © 2014

See weather overviewHow to use our weather pages